This is the latest recevied weather packets stored in our database for station/object KC3UTO. If no packets are shown the sender has not sent any weather packets the latest 10 day(s).
| Time | Temp. | Humidity | Pressure | Rain* | Wind** | Luminosity | Snow |
|---|---|---|---|---|---|---|---|
| 1777496679 | 15.56° C | 58% | 1009.1 hPa | 0 mm | - | 62 W/m² | - |
| 1777496375 | 16.11° C | 57% | 1009 hPa | 0 mm | - | 35 W/m² | - |
| 1777496072 | 16.11° C | 54% | 1009.1 hPa | 0 mm | - | 58 W/m² | - |
| 1777495767 | 16.11° C | 54% | 1009.3 hPa | 0 mm | - | 60 W/m² | - |
| 1777495464 | 16.11° C | 56% | 1009.2 hPa | 0 mm | - | 63 W/m² | - |
| 1777495160 | 16.11° C | 59% | 1009.2 hPa | 0 mm | - | 62 W/m² | - |
| 1777494857 | 15.56° C | 58% | 1009.3 hPa | 0 mm | - | 66 W/m² | - |
| 1777494554 | 15.56° C | 57% | 1009.3 hPa | 0 mm | - | 70 W/m² | - |
| 1777494252 | 15.56° C | 57% | 1009.5 hPa | 0 mm | - | 45 W/m² | - |
| 1777493948 | 15.56° C | 57% | 1009.8 hPa | 0 mm | - | 39 W/m² | - |
| 1777493646 | 15.56° C | 60% | 1009.6 hPa | 0 mm | - | 58 W/m² | - |
| 1777493343 | 15.56° C | 58% | 1009.8 hPa | 0 mm | - | 62 W/m² | - |
| 1777493040 | 15.56° C | 58% | 1009.7 hPa | 0 mm | - | 74 W/m² | - |
| 1777492737 | 15.56° C | 59% | 1010.1 hPa | 0 mm | - | 84 W/m² | - |
| 1777492437 | 15.56° C | 57% | 1010.1 hPa | 0 mm | - | 60 W/m² | - |
| 1777492135 | 15.56° C | 60% | 1010.1 hPa | 0 mm | - | 99 W/m² | - |
| 1777491831 | 15.56° C | 62% | 1010.3 hPa | 0 mm | - | 75 W/m² | - |
| 1777491527 | 15.56° C | 60% | 1010.3 hPa | 0 mm | - | 79 W/m² | - |
| 1777491226 | 15.56° C | 64% | 1010.4 hPa | 0 mm | - | 75 W/m² | - |
| 1777490921 | 15.56° C | 62% | 1010.3 hPa | 0 mm | - | 108 W/m² | - |
| 1777490617 | 15.56° C | 63% | 1010.6 hPa | 0 mm | - | 95 W/m² | - |
| 1777490313 | 15.56° C | 61% | 1010.8 hPa | 0 mm | - | 55 W/m² | - |
| 1777490011 | 15.56° C | 60% | 1010.6 hPa | 0 mm | - | 42 W/m² | - |
| 1777489709 | 15.56° C | 61% | 1011 hPa | 0 mm | - | 81 W/m² | - |
| 1777489405 | 15.56° C | 59% | 1010.9 hPa | 0 mm | - | 115 W/m² | - |
* Rain latest hour (hover to see other rain measurements)
** Current wind speed in m/s (hover to see current wind gust speed)